ECISR LESU-LEGE

Flight info

Callsign ECISR
Flight time 0h 28m
Altitude 6500
Route VFR
Aircraft BE58/L-SBGDR/EB1

Departure

Time 2026-04-30 14:46
Airport Pirineus - la Seu d'Urgel Airport (LESU)

Arrival

Time 2026-04-30 15:14
Airport Girona-Costa Brava Airport (LEGE)
Time Latitude Longitude Altitude Speed Heading
2026-04-30 14:38 42.33771 1.40525 2628 ft 0 kts 31°
2026-04-30 14:41 42.33764 1.40532 2628 ft 4 kts 207°
2026-04-30 14:42 42.33730 1.40558 2628 ft 8 kts 184°
2026-04-30 14:42 42.33678 1.40517 2628 ft 8 kts 208°
2026-04-30 14:42 42.33640 1.40567 2628 ft 3 kts 121°
2026-04-30 14:42 42.33620 1.40605 2628 ft 8 kts 122°
2026-04-30 14:43 42.33631 1.40686 2628 ft 13 kts 31°
2026-04-30 14:43 42.33752 1.40784 2628 ft 26 kts 31°
2026-04-30 14:43 42.33921 1.40920 2628 ft 26 kts 31°
2026-04-30 14:43 42.34068 1.41041 2628 ft 25 kts 32°
2026-04-30 14:44 42.34240 1.41179 2628 ft 28 kts 31°
2026-04-30 14:44 42.34401 1.41308 2628 ft 24 kts 30°
2026-04-30 14:44 42.34484 1.41408 2628 ft 12 kts 58°
2026-04-30 14:44 42.34543 1.41528 2628 ft 15 kts 43°
2026-04-30 14:45 42.34595 1.41469 2628 ft 12 kts 243°
2026-04-30 14:45 42.34423 1.41325 2628 ft 63 kts 211°
2026-04-30 14:45 42.33944 1.40943 2769 ft 87 kts 214°
2026-04-30 14:45 42.33415 1.40509 3075 ft 88 kts 216°
2026-04-30 14:46 42.32851 1.40168 3384 ft 95 kts 187°
2026-04-30 14:46 42.32205 1.40465 3637 ft 113 kts 140°
2026-04-30 14:46 42.32040 1.41507 3997 ft 117 kts 86°
2026-04-30 14:46 42.32158 1.42639 4247 ft 127 kts 77°
2026-04-30 14:47 42.32446 1.43818 4373 ft 139 kts 75°
2026-04-30 14:47 42.32809 1.45109 4477 ft 154 kts 70°
2026-04-30 14:47 42.33197 1.46474 4779 ft 155 kts 73°
2026-04-30 14:47 42.33558 1.47842 5064 ft 157 kts 75°
2026-04-30 14:48 42.33903 1.49265 5287 ft 160 kts 73°
2026-04-30 14:48 42.34168 1.50740 5498 ft 163 kts 83°
2026-04-30 14:48 42.34393 1.52214 5774 ft 160 kts 82°
2026-04-30 14:48 42.34570 1.53713 5982 ft 162 kts 86°
2026-04-30 14:49 42.34698 1.55224 6186 ft 164 kts 80°
2026-04-30 14:49 42.34914 1.56780 6315 ft 169 kts 81°
2026-04-30 14:49 42.35138 1.58353 6482 ft 171 kts 78°
2026-04-30 14:49 42.35415 1.59916 6640 ft 171 kts 78°
2026-04-30 14:50 42.35924 1.63155 6850 ft 176 kts 89°
2026-04-30 14:50 42.35847 1.64785 6995 ft 173 kts 102°
2026-04-30 14:51 42.35075 1.67854 7237 ft 173 kts 118°
2026-04-30 14:51 42.34585 1.69324 7395 ft 171 kts 118°
2026-04-30 14:51 42.33431 1.72145 7633 ft 172 kts 127°
2026-04-30 14:52 42.32744 1.73485 7712 ft 172 kts 130°
2026-04-30 14:52 42.31318 1.76095 7833 ft 178 kts 128°
2026-04-30 14:52 42.30605 1.77484 7887 ft 179 kts 127°
2026-04-30 14:53 42.29277 1.80296 8026 ft 178 kts 129°
2026-04-30 14:53 42.28531 1.81632 8063 ft 179 kts 133°
2026-04-30 14:54 42.26955 1.84257 8170 ft 179 kts 131°
2026-04-30 14:54 42.25169 1.86622 8192 ft 183 kts 141°
2026-04-30 14:55 42.23249 1.88891 7878 ft 184 kts 143°
2026-04-30 14:55 42.22263 1.90014 7619 ft 184 kts 141°
2026-04-30 14:55 42.20405 1.92377 7110 ft 182 kts 135°
2026-04-30 14:56 42.18844 1.94996 6667 ft 181 kts 131°
2026-04-30 14:56 42.17453 1.97649 6464 ft 168 kts 127°
2026-04-30 14:57 42.16845 1.98968 6342 ft 165 kts 126°
2026-04-30 14:57 42.15858 2.01772 6047 ft 169 kts 115°
2026-04-30 14:58 42.15013 2.04644 5614 ft 161 kts 116°
2026-04-30 14:58 42.14597 2.05988 5517 ft 160 kts 118°
2026-04-30 14:58 42.13615 2.08855 5534 ft 175 kts 120°
2026-04-30 14:59 42.12418 2.11780 4774 ft 175 kts 123°
2026-04-30 15:00 42.11111 2.15977 4229 ft 149 kts 109°
2026-04-30 15:00 42.10490 2.18876 4182 ft 166 kts 107°
2026-04-30 15:01 42.09775 2.21806 4275 ft 162 kts 116°
2026-04-30 15:01 42.09324 2.23210 3945 ft 160 kts 115°
2026-04-30 15:01 42.08336 2.26028 3545 ft 171 kts 111°
2026-04-30 15:02 42.07921 2.27534 3589 ft 171 kts 111°
2026-04-30 15:02 42.07500 2.29040 3568 ft 173 kts 114°
2026-04-30 15:03 42.06476 2.33617 3827 ft 167 kts 106°
2026-04-30 15:03 42.05829 2.36653 4079 ft 166 kts 99°
2026-04-30 15:04 42.05397 2.39685 4361 ft 166 kts 95°
2026-04-30 15:04 42.04930 2.44432 4588 ft 173 kts 92°
2026-04-30 15:05 42.04891 2.49308 4781 ft 176 kts 100°
2026-04-30 15:06 42.03766 2.52280 4740 ft 177 kts 122°
2026-04-30 15:06 42.02297 2.54796 4263 ft 164 kts 128°
2026-04-30 15:07 42.00790 2.56951 3786 ft 148 kts 131°
2026-04-30 15:07 41.99273 2.59311 3429 ft 178 kts 128°
2026-04-30 15:08 41.97639 2.61820 3222 ft 173 kts 129°
2026-04-30 15:08 41.95270 2.65356 2825 ft 165 kts 129°
2026-04-30 15:09 41.93842 2.67730 2645 ft 161 kts 123°
2026-04-30 15:09 41.92686 2.70279 2467 ft 159 kts 119°
2026-04-30 15:10 41.91225 2.72466 2286 ft 160 kts 150°
2026-04-30 15:11 41.87723 2.72278 1643 ft 130 kts 199°
2026-04-30 15:11 41.86327 2.73177 1540 ft 123 kts 114°
2026-04-30 15:12 41.87118 2.74925 1144 ft 89 kts 17°
2026-04-30 15:13 41.88182 2.75318 814 ft 80 kts 21°
2026-04-30 15:14 41.90229 2.76105 469 ft 22 kts 17°
2026-04-30 15:14 41.90933 2.76423 469 ft 23 kts 46°
2026-04-30 15:16 41.90372 2.76389 469 ft 17 kts 197°
2026-04-30 15:17 41.90274 2.76482 469 ft 0 kts 196°